TimeAKDT,TemperatureF,Dew PointF,Humidity,Sea Level PressureIn,VisibilityMPH,Wind Direction,Wind SpeedMPH,Gust SpeedMPH,PrecipitationIn,Events,Conditions,WindDirDegrees,DateUTC
12:33 AM,42.8,33.8,70,30.43,10.0,South,4.6,-,N/A,,Mostly Cloudy,180,2012-10-21 08:33:00
12:56 AM,41.0,34.0,76,30.44,10.0,South,5.8,-,N/A,,Mostly Cloudy,190,2012-10-21 08:56:00
1:46 AM,42.8,33.8,70,30.41,10.0,South,6.9,-,N/A,,Mostly Cloudy,180,2012-10-21 09:46:00
1:56 AM,43.0,34.0,71,30.42,10.0,SSW,8.1,-,N/A,,Overcast,200,2012-10-21 09:56:00
2:23 AM,42.8,35.6,76,30.40,10.0,SSW,9.2,-,N/A,,Partly Cloudy,210,2012-10-21 10:23:00
2:56 AM,43.0,35.1,74,30.42,10.0,SSW,9.2,-,N/A,,Clear,200,2012-10-21 10:56:00
3:56 AM,43.0,35.1,74,30.40,10.0,SSW,8.1,-,N/A,,Mostly Cloudy,200,2012-10-21 11:56:00
4:56 AM,43.0,34.0,71,30.40,10.0,Calm,Calm,-,N/A,,Overcast,0,2012-10-21 12:56:00
5:56 AM,43.0,34.0,71,30.38,10.0,South,3.5,-,N/A,,Overcast,170,2012-10-21 13:56:00
6:34 AM,42.8,35.6,76,30.35,10.0,SSE,3.5,-,N/A,,Overcast,150,2012-10-21 14:34:00
6:56 AM,43.0,35.1,74,30.37,10.0,SSE,4.6,-,0.00,Rain,Light Rain,160,2012-10-21 14:56:00
7:56 AM,43.0,36.0,76,30.36,10.0,Calm,Calm,-,0.00,Rain,Light Rain,0,2012-10-21 15:56:00
8:56 AM,42.1,37.0,82,30.36,10.0,Calm,Calm,-,0.00,Rain,Light Rain,0,2012-10-21 16:56:00
9:56 AM,42.1,37.0,82,30.35,10.0,Calm,Calm,-,0.00,,Mostly Cloudy,0,2012-10-21 17:56:00
10:28 AM,42.8,37.4,81,30.33,10.0,Calm,Calm,-,N/A,,Overcast,0,2012-10-21 18:28:00
10:56 AM,43.0,37.0,80,30.35,10.0,Calm,Calm,-,N/A,,Overcast,0,2012-10-21 18:56:00
11:56 AM,44.1,37.0,76,30.35,10.0,SSW,5.8,-,N/A,,Mostly Cloudy,200,2012-10-21 19:56:00
12:56 PM,45.0,37.0,74,30.34,10.0,SW,9.2,-,N/A,,Mostly Cloudy,220,2012-10-21 20:56:00
1:56 PM,46.0,37.9,73,30.34,10.0,South,9.2,-,N/A,,Mostly Cloudy,190,2012-10-21 21:56:00
2:56 PM,46.9,37.9,71,30.34,10.0,SSW,6.9,-,N/A,,Overcast,200,2012-10-21 22:56:00
3:56 PM,48.0,39.0,71,30.33,10.0,SSW,8.1,-,N/A,,Mostly Cloudy,200,2012-10-21 23:56:00
4:56 PM,48.0,39.0,71,30.33,10.0,SSW,8.1,-,N/A,,Mostly Cloudy,200,2012-10-22 00:56:00
5:56 PM,48.0,39.0,71,30.33,10.0,SSW,6.9,-,N/A,,Overcast,210,2012-10-22 01:56:00
6:56 PM,46.9,39.0,74,30.35,10.0,Calm,Calm,-,N/A,,Overcast,0,2012-10-22 02:56:00
7:27 PM,46.4,39.2,76,30.33,10.0,Variable,3.5,-,N/A,,Overcast,0,2012-10-22 03:27:00
7:56 PM,46.9,39.0,74,30.35,10.0,Calm,Calm,-,N/A,,Overcast,0,2012-10-22 03:56:00
8:34 PM,44.6,39.2,81,30.34,10.0,East,4.6,-,N/A,,Overcast,90,2012-10-22 04:34:00
9:56 PM,44.1,39.9,85,30.38,10.0,Calm,Calm,-,N/A,,Overcast,0,2012-10-22 05:56:00
10:56 PM,43.0,39.0,86,30.38,10.0,Calm,Calm,-,N/A,,Overcast,0,2012-10-22 06:56:00
11:56 PM,43.0,39.0,86,30.38,10.0,Calm,Calm,-,N/A,,Overcast,0,2012-10-22 07:56:00